EW0408 Weather Reports


Display with metric or nautical units.
time (UTC)temp
F
wind
direction
speed
MPH
gust
MPH
rain 1hr
in
rain 24hr
in
rain mn
in
humidity
%
barometer
mb
20260506124004 76 0 0.0 0.0 0.00 0.00 0.00 83 1016.9
20260506123005 75 0 0.0 0.0 0.00 0.00 0.00 86 1016.9
20260506122005 74 0 0.0 0.0 0.00 0.00 0.00 89 1016.7
20260506121025 73 0 0.0 0.0 0.00 0.00 0.00 89 1016.6
20260506120005 72 0 0.0 0.0 0.00 0.00 0.00 90 1016.6
20260506115004 71 0 0.0 0.0 0.00 0.00 0.00 91 1016.5
20260506114005 70 0 0.0 0.0 0.00 0.00 0.00 91 1016.5
20260506113004 70 0 0.0 0.0 0.00 0.00 0.00 91 1016.4
20260506112004 70 0 0.0 0.0 0.00 0.00 0.00 91 1016.2
20260506111025 70 0 0.0 0.0 0.00 0.00 0.00 91 1016.1
20260506110004 70 0 0.0 0.0 0.00 0.00 0.00 91 1016.1
20260506105004 70 0 0.0 0.0 0.00 0.00 0.00 90 1016.0
20260506104005 70 0 0.0 0.0 0.00 0.00 0.00 90 1015.9
20260506103004 69 0 0.0 0.0 0.00 0.00 0.00 90 1015.9
20260506102004 69 0 0.0 0.0 0.00 0.00 0.00 90 1015.8
20260506101005 69 0 0.0 0.0 0.00 0.00 0.00 90 1015.9
20260506100004 69 0 0.0 0.0 0.00 0.00 0.00 90 1015.8
20260506095025 69 0 0.0 0.0 0.00 0.00 0.00 89 1015.7
20260506094025 69 0 0.0 0.0 0.00 0.00 0.00 89 1015.7
20260506093025 69 0 0.0 0.0 0.00 0.00 0.00 90 1015.7
20260506092026 69 0 0.0 0.0 0.00 0.00 0.00 89 1015.8
20260506091004 69 0 0.0 0.0 0.00 0.00 0.00 89 1015.8
20260506090004 69 0 0.0 0.0 0.00 0.00 0.00 88 1015.6
20260506085025 69 0 0.0 0.0 0.00 0.00 0.00 88 1015.6
20260506084005 69 0 0.0 0.0 0.00 0.00 0.00 87 1015.7
20260506083005 69 0 0.0 0.0 0.00 0.00 0.00 87 1015.5
20260506082004 69 0 0.0 0.0 0.00 0.00 0.00 87 1015.7
20260506081004 69 0 0.0 0.0 0.00 0.00 0.00 86 1015.7
20260506073004 70 0 0.0 0.0 0.00 0.00 0.00 84 1015.8
20260506072004 70 0 0.0 0.0 0.00 0.00 0.00 84 1015.9
20260506071004 70 0 0.0 0.0 0.00 0.00 0.00 83 1016.0
20260506062005 71 0 0.0 0.0 0.00 0.00 0.00 83 1016.1
20260506061004 71 0 0.0 0.0 0.00 0.00 0.00 82 1016.1
20260506051025 71 0 0.0 0.0 0.00 0.00 0.00 80 1016.4
20260506045004 72 0 0.0 0.0 0.00 0.00 0.00 80 1016.6
20260506044004 72 0 0.0 0.0 0.00 0.00 0.00 79 1016.5
20260506043004 72 0 0.0 0.0 0.00 0.00 0.00 79 1016.5
20260506042004 72 0 0.0 0.0 0.00 0.00 0.00 79 1016.4
20260506041004 72 0 0.0 0.0 0.00 0.00 0.00 79 1016.6
20260506040026 72 68 0.0 2.0 0.00 0.00 0.00 79 1016.6
20260506035004 72 82 0.0 2.0 0.00 0.00 0.00 78 1016.8
20260506034004 72 63 0.0 2.0 0.00 0.00 0.00 78 1016.7
20260506033004 72 86 0.0 2.0 0.00 0.00 0.00 77 1016.9
20260506032004 73 83 1.0 3.0 0.00 0.00 0.00 76 1016.8
20260506031004 73 72 0.0 3.0 0.00 0.00 0.00 76 1016.9
20260506030004 73 70 1.0 4.0 0.00 0.00 0.00 76 1016.7
20260506025005 73 54 2.0 5.0 0.00 0.00 0.00 75 1016.7
20260506024004 73 65 2.0 5.0 0.00 0.00 0.00 75 1016.7
20260506023004 74 70 2.0 4.0 0.00 0.00 0.00 74 1016.7
20260506022004 74 75 2.0 5.0 0.00 0.00 0.00 73 1016.5
20260506021003 74 82 1.0 4.0 0.00 0.00 0.00 73 1016.5
20260506020004 74 91 2.0 4.0 0.00 0.00 0.00 71 1016.5
20260506015004 74 59 3.0 7.0 0.00 0.00 0.00 71 1016.2
20260506014004 74 57 3.0 8.0 0.00 0.00 0.00 70 1016.1
20260506013025 75 61 2.0 5.0 0.00 0.00 0.00 70 1015.8
20260506012004 75 75 2.0 5.0 0.00 0.00 0.00 69 1015.7
20260506011004 76 73 2.0 9.0 0.00 0.00 0.00 69 1015.6
20260506010004 76 59 5.0 10.0 0.00 0.00 0.00 66 1015.5
20260506005004 76 59 4.0 10.0 0.00 0.00 0.00 67 1015.4
20260506004025 77 57 6.0 11.0 0.00 0.00 0.00 67 1015.2
20260506003004 77 56 5.0 11.0 0.00 0.00 0.00 66 1015.1
20260506002003 77 58 4.0 10.0 0.00 0.00 0.00 66 1014.8
20260506001004 78 69 4.0 9.0 0.00 0.00 0.00 66 1014.9
20260506000025 78 64 4.0 10.0 0.00 0.00 0.00 66 1014.7
20260505235004 78 58 7.0 14.0 0.00 0.00 0.00 65 1014.7
20260505234004 79 59 6.0 14.0 0.00 0.00 0.00 65 1014.7
20260505233004 80 55 7.0 14.0 0.00 0.00 0.00 65 1014.8
20260505232004 80 68 4.0 11.0 0.00 0.00 0.00 66 1014.7
20260505231004 80 69 5.0 13.0 0.00 0.00 0.00 63 1014.8
20260505230004 81 56 8.0 15.0 0.00 0.00 0.00 64 1014.6
20260505225004 81 61 6.0 13.0 0.00 0.00 0.00 63 1014.7
20260505224003 82 63 5.0 13.0 0.00 0.00 0.00 64 1014.6
20260505223004 82 57 7.0 12.0 0.00 0.00 0.00 63 1014.5
20260505222003 82 54 8.0 13.0 0.00 0.00 0.00 63 1014.5
20260505221004 82 59 5.0 13.0 0.00 0.00 0.00 61 1014.5
20260505220004 82 69 4.0 11.0 0.00 0.00 0.00 62 1014.5
20260505215025 82 57 7.0 13.0 0.00 0.00 0.00 61 1014.5
20260505214004 83 99 2.0 11.0 0.00 0.00 0.00 62 1014.3
20260505213004 83 90 3.0 14.0 0.00 0.00 0.00 63 1014.1
20260505212004 84 63 4.0 12.0 0.00 0.00 0.00 63 1014.1
20260505211004 84 50 9.0 14.0 0.00 0.00 0.00 62 1014.1
20260505210005 84 53 6.0 12.0 0.00 0.00 0.00 60 1014.1
20260505205024 86 50 4.0 10.0 0.00 0.00 0.00 58 1014.2
20260505204004 87 67 2.0 9.0 0.00 0.00 0.00 56 1014.1
20260505203025 87 59 5.0 9.0 0.00 0.00 0.00 58 1014.0
20260505202024 87 86 2.0 5.0 0.00 0.00 0.00 55 1014.2
20260505201004 86 56 5.0 9.0 0.00 0.00 0.00 56 1014.2
20260505200003 87 95 2.0 8.0 0.00 0.00 0.00 57 1014.2
20260505195003 86 56 5.0 11.0 0.00 0.00 0.00 60 1014.4
20260505194004 85 49 6.0 13.0 0.00 0.00 0.00 57 1014.5
20260505193004 86 60 3.0 8.0 0.00 0.00 0.00 59 1014.5
20260505192004 87 74 3.0 7.0 0.00 0.00 0.00 59 1014.7
20260505191025 87 35 2.0 10.0 0.00 0.00 0.00 57 1014.6
20260505190005 87 108 1.0 4.0 0.00 0.00 0.00 57 1014.9
20260505185004 87 75 2.0 6.0 0.00 0.00 0.00 56 1015.1
20260505184004 86 51 4.0 13.0 0.00 0.00 0.00 62 1015.3
20260505183004 85 50 7.0 13.0 0.00 0.00 0.00 61 1015.5
20260505182004 86 55 3.0 8.0 0.00 0.00 0.00 59 1015.6
20260505181004 84 37 4.0 10.0 0.00 0.00 0.00 62 1015.7
20260505180003 84 42 5.0 10.0 0.00 0.00 0.00 60 1015.8
20260505175004 84 44 6.0 12.0 0.00 0.00 0.00 59 1015.8
20260505174024 86 52 3.0 5.0 0.00 0.00 0.00 61 1015.9
20260505173024 86 49 4.0 7.0 0.00 0.00 0.00 59 1015.8
20260505172005 86 77 3.0 8.0 0.00 0.00 0.00 60 1016.0
20260505171003 86 104 2.0 5.0 0.00 0.00 0.00 61 1016.0
20260505170004 85 57 3.0 11.0 0.00 0.00 0.00 62 1016.0
20260505165003 85 85 2.0 10.0 0.00 0.00 0.00 60 1016.1
20260505164024 84 58 3.0 9.0 0.00 0.00 0.00 63 1016.1
20260505163004 85 29 2.0 4.0 0.00 0.00 0.00 63 1016.1
20260505162004 84 101 1.0 4.0 0.00 0.00 0.00 63 1016.3
20260505161004 82 61 3.0 9.0 0.00 0.00 0.00 66 1016.4
20260505153025 82 62 4.0 13.0 0.00 0.00 0.00 63 1016.4
20260505152003 83 64 2.0 5.0 0.00 0.00 0.00 67 1016.4
20260505151003 81 40 2.0 5.0 0.00 0.00 0.00 66 1016.5
20260505125003 72 53 7.0 10.0 0.00 0.00 0.00 81 1015.9